Time,TemperatureF,DewpointF,PressureIn,WindDirection,WindDirectionDegrees,WindSpeedMPH,WindSpeedGustMPH,Humidity,HourlyPrecipIn,Conditions,Clouds,dailyrainin,SoftwareType,DateUTC
2013-03-31 00:00:00,58.0,54.8,30.04,North,4,3.0,7.0,89,0.00,-RA,,0.00,WeatherDisplay:10.37,2013-03-31 07:00:00,
2013-03-31 00:15:00,57.8,54.6,30.03,NNE,14,2.0,7.0,89,0.00,OVC,,0.00,WeatherDisplay:10.37,2013-03-31 07:15:00,
2013-03-31 00:30:00,57.7,54.5,30.02,NNW,329,0.0,6.0,89,0.01,-RA,,0.01,WeatherDisplay:10.37,2013-03-31 07:30:00,
2013-03-31 00:45:00,57.5,54.6,30.02,NE,35,1.0,4.0,90,0.00,-RA,,0.01,WeatherDisplay:10.37,2013-03-31 07:45:00,
2013-03-31 01:00:00,57.2,54.0,30.02,NNW,342,1.0,5.0,89,0.00,RA,,0.01,WeatherDisplay:10.37,2013-03-31 08:00:00,
2013-03-31 01:15:00,57.2,53.7,30.02,NW,320,5.0,7.0,88,0.00,RA,,0.01,WeatherDisplay:10.37,2013-03-31 08:15:00,
2013-03-31 01:30:00,57.3,53.5,30.03,NNW,327,2.0,10.0,87,0.00,RA,,0.01,WeatherDisplay:10.37,2013-03-31 08:30:00,
2013-03-31 01:45:00,57.1,53.3,30.03,NNW,342,2.0,8.0,87,0.00,RA,,0.01,WeatherDisplay:10.37,2013-03-31 08:45:00,
2013-03-31 02:00:00,56.8,53.3,30.03,NNW,338,1.0,6.0,88,0.00,RA,,0.01,WeatherDisplay:10.37,2013-03-31 09:00:00,
2013-03-31 02:15:00,57.0,53.2,30.04,NNE,12,2.0,7.0,87,0.00,RA,,0.01,WeatherDisplay:10.37,2013-03-31 09:15:00,
2013-03-31 02:30:00,57.1,53.3,30.04,North,4,1.0,7.0,87,0.00,RA,,0.01,WeatherDisplay:10.37,2013-03-31 09:30:00,
2013-03-31 02:45:00,56.7,52.9,30.05,North,3,0.0,4.0,87,0.00,RA,,0.01,WeatherDisplay:10.37,2013-03-31 09:45:00,
2013-03-31 03:00:00,56.3,52.8,30.05,North,6,0.0,5.0,88,0.00,RA,,0.01,WeatherDisplay:10.37,2013-03-31 10:00:00,
2013-03-31 03:15:00,56.0,52.5,30.05,NNW,343,1.0,3.0,88,0.00,RA,,0.01,WeatherDisplay:10.37,2013-03-31 10:15:00,
2013-03-31 03:30:00,55.7,52.2,30.05,NNW,342,0.0,3.0,88,0.00,RA,,0.01,WeatherDisplay:10.37,2013-03-31 10:30:00,
2013-03-31 03:45:00,55.3,51.8,30.05,NNW,342,0.0,1.0,88,0.00,RA,,0.01,WeatherDisplay:10.37,2013-03-31 10:45:00,
2013-03-31 04:00:00,54.8,51.6,30.05,NNW,342,0.0,1.0,89,0.00,RA,,0.01,WeatherDisplay:10.37,2013-03-31 11:00:00,
2013-03-31 04:15:00,54.4,51.5,30.05,NNW,342,0.0,2.0,90,0.00,RA,,0.01,WeatherDisplay:10.37,2013-03-31 11:15:00,
2013-03-31 04:30:00,54.3,51.7,30.05,NNW,342,1.0,3.0,91,0.02,RA,,0.03,WeatherDisplay:10.37,2013-03-31 11:30:00,
2013-03-31 04:45:00,53.9,51.3,30.05,NNW,342,0.0,2.0,91,0.00,RA,,0.03,WeatherDisplay:10.37,2013-03-31 11:45:00,
2013-03-31 05:00:00,53.4,51.1,30.05,NNW,342,0.0,1.0,92,0.00,RA,,0.03,WeatherDisplay:10.37,2013-03-31 12:00:00,
2013-03-31 05:15:00,53.2,51.2,30.05,NNW,342,0.0,0.0,93,0.01,RA,,0.04,WeatherDisplay:10.37,2013-03-31 12:15:00,
2013-03-31 05:30:00,53.4,51.7,30.06,NNW,342,0.0,2.0,94,0.00,RA,,0.04,WeatherDisplay:10.37,2013-03-31 12:30:00,
2013-03-31 05:45:00,53.7,52.0,30.06,NNW,340,0.0,3.0,94,0.02,RA,,0.06,WeatherDisplay:10.37,2013-03-31 12:45:00,
2013-03-31 06:00:00,53.9,52.2,30.06,NNW,340,0.0,2.0,94,0.00,RA,,0.06,WeatherDisplay:10.37,2013-03-31 13:00:00,
2013-03-31 06:15:00,53.8,52.1,30.06,NNW,340,0.0,2.0,94,0.00,RA,,0.06,WeatherDisplay:10.37,2013-03-31 13:15:00,
2013-03-31 06:30:00,53.3,51.7,30.06,NNW,340,0.0,0.0,94,0.00,RA,,0.06,WeatherDisplay:10.37,2013-03-31 13:30:00,
2013-03-31 06:45:00,52.9,51.2,30.06,NNW,340,0.0,1.0,94,0.00,RA,,0.06,WeatherDisplay:10.37,2013-03-31 13:45:00,
2013-03-31 07:00:00,52.6,50.9,30.06,NNW,340,0.0,3.0,94,0.00,RA,,0.06,WeatherDisplay:10.37,2013-03-31 14:00:00,
2013-03-31 07:15:00,52.8,51.1,30.06,NNW,340,0.0,2.0,94,0.00,RA,,0.06,WeatherDisplay:10.37,2013-03-31 14:15:00,
2013-03-31 07:30:00,52.9,51.2,30.07,NNW,340,1.0,2.0,94,0.00,RA,,0.06,WeatherDisplay:10.37,2013-03-31 14:30:00,
2013-03-31 07:45:00,53.1,51.7,30.07,NNW,340,0.0,1.0,95,0.00,RA,,0.06,WeatherDisplay:10.37,2013-03-31 14:45:00,
2013-03-31 08:00:00,53.7,52.3,30.07,NNW,340,0.0,1.0,95,0.00,RA,,0.06,WeatherDisplay:10.37,2013-03-31 15:00:00,
2013-03-31 08:15:00,55.2,54.1,30.07,NNW,340,0.0,0.0,96,0.00,RA,,0.06,WeatherDisplay:10.37,2013-03-31 15:15:00,
2013-03-31 08:30:00,56.9,55.4,30.07,NNW,340,0.0,2.0,95,0.00,RA,,0.06,WeatherDisplay:10.37,2013-03-31 15:30:00,
2013-03-31 08:45:00,58.2,55.6,30.07,NW,317,0.0,4.0,91,0.00,RA,,0.06,WeatherDisplay:10.37,2013-03-31 15:45:00,
2013-03-31 09:00:00,59.6,55.4,30.08,West,276,1.0,3.0,86,0.00,RA,,0.06,WeatherDisplay:10.37,2013-03-31 16:00:00,
2013-03-31 09:15:00,61.1,55.9,30.07,WNW,299,0.0,3.0,83,0.00,RA,,0.06,WeatherDisplay:10.37,2013-03-31 16:15:00,
2013-03-31 09:30:00,61.8,54.2,30.07,WNW,301,2.0,6.0,76,0.00,RA,,0.06,WeatherDisplay:10.37,2013-03-31 16:30:00,
2013-03-31 09:45:00,62.6,53.8,30.07,NNW,348,2.0,5.0,73,0.00,RA,,0.06,WeatherDisplay:10.37,2013-03-31 16:45:00,
2013-03-31 10:00:00,63.6,53.6,30.07,NW,310,1.0,7.0,70,0.00,RA,,0.06,WeatherDisplay:10.37,2013-03-31 17:00:00,
2013-03-31 10:15:00,65.5,55.4,30.07,WNW,287,1.0,5.0,70,0.00,RA,,0.06,WeatherDisplay:10.37,2013-03-31 17:15:00,
2013-03-31 10:30:00,66.1,53.6,30.07,WNW,298,2.0,9.0,64,0.00,RA,,0.06,WeatherDisplay:10.37,2013-03-31 17:30:00,
2013-03-31 10:45:00,67.4,53.5,30.08,WNW,294,1.0,6.0,61,0.00,RA,,0.06,WeatherDisplay:10.37,2013-03-31 17:45:00,
2013-03-31 11:00:00,67.0,53.5,30.07,West,272,2.0,9.0,62,0.00,RA,,0.06,WeatherDisplay:10.37,2013-03-31 18:00:00,
2013-03-31 11:15:00,65.3,53.3,30.07,NW,311,0.0,10.0,65,0.00,RA,,0.06,WeatherDisplay:10.37,2013-03-31 18:15:00,
2013-03-31 11:30:00,66.2,53.3,30.07,NNW,328,2.0,10.0,63,0.00,RA,,0.06,WeatherDisplay:10.37,2013-03-31 18:30:00,
2013-03-31 11:45:00,67.1,50.9,30.07,North,9,5.0,13.0,56,0.00,RA,,0.06,WeatherDisplay:10.37,2013-03-31 18:45:00,
2013-03-31 12:00:00,67.8,51.5,30.07,North,358,3.0,10.0,56,0.00,RA,,0.06,WeatherDisplay:10.37,2013-03-31 19:00:00,
2013-03-31 12:15:00,67.7,51.9,30.07,NNE,26,0.0,10.0,57,0.00,RA,,0.06,WeatherDisplay:10.37,2013-03-31 19:15:00,
2013-03-31 12:30:00,67.6,50.9,30.06,North,359,3.0,9.0,55,0.00,RA,,0.06,WeatherDisplay:10.37,2013-03-31 19:30:00,
2013-03-31 12:45:00,67.4,50.7,30.06,North,350,3.0,10.0,55,0.00,RA,,0.06,WeatherDisplay:10.37,2013-03-31 19:45:00,
2013-03-31 13:00:00,68.3,51.0,30.05,North,359,5.0,10.0,54,0.00,RA,,0.06,WeatherDisplay:10.37,2013-03-31 20:00:00,
2013-03-31 13:15:00,67.5,51.3,30.05,NNW,345,5.0,10.0,56,0.00,RA,,0.06,WeatherDisplay:10.37,2013-03-31 20:15:00,
2013-03-31 13:30:00,68.5,50.7,30.05,North,4,6.0,12.0,53,0.00,RA,,0.06,WeatherDisplay:10.37,2013-03-31 20:30:00,
2013-03-31 13:45:00,65.1,53.9,30.04,NNE,32,6.0,16.0,67,0.00,RA,,0.06,WeatherDisplay:10.37,2013-03-31 20:45:00,
2013-03-31 14:00:00,67.5,50.7,30.03,North,352,9.0,15.0,55,0.00,RA,,0.06,WeatherDisplay:10.37,2013-03-31 21:00:00,
2013-03-31 14:15:00,67.9,50.6,30.03,North,2,8.0,16.0,54,0.00,RA,,0.06,WeatherDisplay:10.37,2013-03-31 21:15:00,
2013-03-31 14:30:00,66.9,51.6,30.03,NNE,12,2.0,20.0,58,0.00,RA,,0.06,WeatherDisplay:10.37,2013-03-31 21:30:00,
2013-03-31 14:45:00,66.3,50.6,30.03,NNE,23,6.0,12.0,57,0.00,RA,,0.06,WeatherDisplay:10.37,2013-03-31 21:45:00,
2013-03-31 15:00:00,66.2,50.5,30.03,North,358,6.0,14.0,57,0.00,RA,,0.06,WeatherDisplay:10.37,2013-03-31 22:00:00,
2013-03-31 15:15:00,65.5,50.8,30.03,North,351,5.0,13.0,59,0.00,RA,,0.06,WeatherDisplay:10.37,2013-03-31 22:15:00,
2013-03-31 15:30:00,64.8,50.6,30.03,NNE,12,6.0,12.0,60,0.00,RA,,0.06,WeatherDisplay:10.37,2013-03-31 22:30:00,
2013-03-31 15:45:00,63.6,50.8,30.02,NNE,25,5.0,12.0,63,0.00,RA,,0.06,WeatherDisplay:10.37,2013-03-31 22:45:00,
2013-03-31 16:00:00,63.6,51.6,30.03,NNE,18,6.0,10.0,65,0.00,RA,,0.06,WeatherDisplay:10.37,2013-03-31 23:00:00,
2013-03-31 16:15:00,63.2,51.2,30.02,North,8,3.0,12.0,65,0.00,RA,,0.06,WeatherDisplay:10.37,2013-03-31 23:15:00,
2013-03-31 16:30:00,63.6,51.6,30.02,North,357,2.0,8.0,65,0.00,RA,,0.06,WeatherDisplay:10.37,2013-03-31 23:30:00,
2013-03-31 16:45:00,64.4,51.5,30.01,NE,41,5.0,10.0,63,0.00,RA,,0.06,WeatherDisplay:10.37,2013-03-31 23:45:00,
2013-03-31 17:00:00,65.9,51.6,30.01,North,6,5.0,8.0,60,0.00,RA,,0.06,WeatherDisplay:10.37,2013-04-01 00:00:00,
2013-03-31 17:15:00,65.9,51.2,30.01,NNE,16,5.0,12.0,59,0.00,RA,,0.06,WeatherDisplay:10.37,2013-04-01 00:15:00,
2013-03-31 17:30:00,65.1,51.3,30.01,North,356,3.0,10.0,61,0.00,RA,,0.06,WeatherDisplay:10.37,2013-04-01 00:30:00,
2013-03-31 17:45:00,64.4,51.1,30.01,NNE,13,1.0,9.0,62,0.00,RA,,0.06,WeatherDisplay:10.37,2013-04-01 00:45:00,
2013-03-31 18:00:00,64.1,50.4,30.01,NNE,23,7.0,12.0,61,0.00,RA,,0.06,WeatherDisplay:10.37,2013-04-01 01:00:00,
2013-03-31 18:15:00,63.9,51.1,30.02,NNE,16,8.0,15.0,63,0.00,RA,,0.06,WeatherDisplay:10.37,2013-04-01 01:15:00,
2013-03-31 18:30:00,62.7,50.8,30.02,NNE,23,5.0,14.0,65,0.00,RA,,0.06,WeatherDisplay:10.37,2013-04-01 01:30:00,
2013-03-31 18:45:00,62.0,50.9,30.02,NNE,13,3.0,10.0,67,0.00,RA,,0.06,WeatherDisplay:10.37,2013-04-01 01:45:00,
2013-03-31 19:00:00,61.6,50.9,30.03,North,2,2.0,8.0,68,0.00,RA,,0.06,WeatherDisplay:10.37,2013-04-01 02:00:00,
2013-03-31 19:15:00,61.2,50.9,30.02,NNE,17,2.0,8.0,69,0.00,RA,,0.06,WeatherDisplay:10.37,2013-04-01 02:15:00,
2013-03-31 19:30:00,61.0,51.1,30.02,NNW,336,0.0,7.0,70,0.00,RA,,0.06,WeatherDisplay:10.37,2013-04-01 02:30:00,
2013-03-31 19:45:00,60.8,51.3,30.02,NNW,347,0.0,4.0,71,0.00,RA,,0.06,WeatherDisplay:10.37,2013-04-01 02:45:00,
2013-03-31 20:00:00,60.6,51.5,30.03,North,352,1.0,4.0,72,0.00,RA,,0.06,WeatherDisplay:10.37,2013-04-01 03:00:00,
2013-03-31 20:15:00,60.3,51.6,30.03,NNW,344,0.0,5.0,73,0.00,RA,,0.06,WeatherDisplay:10.37,2013-04-01 03:15:00,
2013-03-31 20:30:00,60.1,51.4,30.03,North,360,2.0,7.0,73,0.00,RA,,0.06,WeatherDisplay:10.37,2013-04-01 03:30:00,
2013-03-31 20:45:00,60.0,51.7,30.04,North,353,1.0,7.0,74,0.00,RA,,0.06,WeatherDisplay:10.37,2013-04-01 03:45:00,
2013-03-31 21:00:00,60.0,51.7,30.05,North,6,1.0,5.0,74,0.00,RA,,0.06,WeatherDisplay:10.37,2013-04-01 04:00:00,
2013-03-31 21:15:00,59.8,51.5,30.05,NNW,340,2.0,8.0,74,0.00,RA,,0.06,WeatherDisplay:10.37,2013-04-01 04:15:00,
2013-03-31 21:30:00,59.6,51.7,30.05,North,358,3.0,7.0,75,0.00,RA,,0.06,WeatherDisplay:10.37,2013-04-01 04:30:00,
2013-03-31 21:45:00,59.4,51.8,30.06,North,0,2.0,8.0,76,0.00,RA,,0.06,WeatherDisplay:10.37,2013-04-01 04:45:00,
2013-03-31 22:00:00,59.1,51.9,30.06,NNE,15,3.0,7.0,77,0.00,RA,,0.06,WeatherDisplay:10.37,2013-04-01 05:00:00,
2013-03-31 22:15:00,58.5,52.4,30.06,NNE,20,1.0,7.0,80,0.00,RA,,0.06,WeatherDisplay:10.37,2013-04-01 05:15:00,
2013-03-31 22:30:00,58.2,52.7,30.06,NNE,24,0.0,4.0,82,0.00,RA,,0.06,WeatherDisplay:10.37,2013-04-01 05:30:00,
2013-03-31 22:45:00,57.8,53.0,30.06,NE,49,1.0,4.0,84,0.00,RA,,0.06,WeatherDisplay:10.37,2013-04-01 05:45:00,
2013-03-31 23:00:00,56.9,53.4,30.06,NE,56,1.0,5.0,88,0.01,RA,,0.07,WeatherDisplay:10.37,2013-04-01 06:00:00,
2013-03-31 23:15:00,56.6,53.7,30.06,North,351,2.0,5.0,90,0.00,RA,,0.07,WeatherDisplay:10.37,2013-04-01 06:15:00,
2013-03-31 23:30:00,56.4,53.5,30.07,NW,322,0.0,3.0,90,0.01,RA,,0.08,WeatherDisplay:10.37,2013-04-01 06:30:00,
2013-03-31 23:45:00,56.2,53.6,30.06,NW,322,0.0,2.0,91,0.00,RA,,0.08,WeatherDisplay:10.37,2013-04-01 06:45:00,